Back to catalog

TJS-15

AliveScienceGEO
NORAD 63157·PAYLOAD·🇨🇳 China

Launched Mar 9, 2025 from Xichang Satellite Launch Center

Loading…

TLE

FreshSource: Space-Track

Epoch: Sep 14, 2026, 18:03 UTC

1 63157U 25045A   26257.75259176 -.00000225  00000-0  00000+0 0  9991
2 63157   0.4341  84.8070 0000169 277.2831 351.3038  1.00272743  5654

Track TJS-15 in real time with AllMySat

Download on the App Store